CZ-6A DEB, 54403

Orbit data source: Space-Track

CZ-6A DEB, 54403 is space debris in SSO originally from a launch on Fri, 11 Nov 2022 UTC launched from the Taiyaun Space Center, China (TSC). Debris objects in space refer to the collection of defunct objects orbiting the Earth. Examples of debris include non-operational satellites, rocket bodies, and fragments generated from explosions, collisions, or faulty payload assembly.

Loading next visibility...
Identifier
54403, 2022-151EB
Orbit
SSO
Country
Flag of CNCN / PRC
Related business
Manufacturer
SAST
Mission
Spacecraft
Bus & Motor
Unknown
Mass
Unknown
Launch date (UTC)
2022-11-11 (4 years ago)
Launch vehicle
Unknown
Launch site
Taiyaun Space Center, China (TSC)
Object type
Payload
Rocket body
Debris
Shape & HBR
Unknown shape, 0.1 m
Radar Cross Section
Medium (>0.1 m² and <1 m²)

Expand to show TLE details & history
Last TLE update: 10 hours ago

TLE from 10 hours ago
0 CZ-6A DEB
1 54403U 22151EB  26236.43529010  .00004732  00000-0  16969-2 0  9999
2 54403  98.6866 230.8518 0107910 339.3193  20.3639 14.31171399195734
Epoch: 2026-08-24T10:26Z
TLE epoch observation values (Epoch: 2026-08-24T10:26:49.064Z)
Latitude
-0.00002°
Longitude
101.43034°
Altitude
718.342 km
Speed
7.534 km/s
True Right ascension
15h 23m 24s
True Declination
0° 00' 00"
Sunlit
Object was in daylight at epoch
Visualization orbit readout
Latitude
Unknown
Longitude
Unknown
Altitude
Unknown
Speed
Unknown
Apparent Right ascension
Unknown
Apparent Declination
Unknown
Sunlit
N/A
Visualization observer readout
Local Sidereal Time
11:49:51
Azimuth
Unknown
Elevation
Unknown
Doppler factor
Unknown
Orbital elements
Apogee altitude
862.257 km
Perigee altitude
707.663 km
Semi-major axis
7,163.097 km
Eccentricity
0.01079
Inclination
98.6866°
RAAN
230.8518°
Arg. of periapsis
339.3193°
True anomaly
20.7997°
Mean anomaly
20.3639°
Eccentric anomaly
20.58125°
Mean motion
3.58007 °/min
Orbital period
100.56 mins
BSTAR
0.0016969
Loading maneuver chart data...
Computing Atmospheric mass density...
Loading historical data...
Loading historical data...
Loading historical data...
Loading historical data...
Loading historical data...
Loading historical data...
Loading historical data...

Documentation

Showing up to 5 results
|